Tracking 35331 objects as of 14-Sep-2026
HD Live streaming from Space Station
objects crossing your sky now

COSMOS 1709

Track COSMOS 1709 now!
10-day predictions
COSMOS 1709 is classified as:


NORAD ID: 16368
Int'l Code: 1985-116A
Launch date: December 19, 1985
Source: Commonwealth of Independent States (former USSR) (CIS)
Launch site: PLESETSK MISSILE AND SPACE COMPLEX (PKMTR)
Your satellite tracking list
Your tracking list is empty




NASA's NSSDC Master Catalog

Two Line Element Set (TLE):
1 16368U 85116A   26256.87705281  .00000043  00000-0  29510-4 0  9992
2 16368  82.9444  47.4718 0033759 235.8230 287.1291 13.74724348 43019
Source of the keplerian elements: AFSPC